Time,TemperatureF,DewpointF,PressureIn,WindDirection,WindDirectionDegrees,WindSpeedMPH,WindSpeedGustMPH,Humidity,HourlyPrecipIn,Conditions,Clouds,dailyrainin,SoftwareType,DateUTC
2013-01-02 12:02:00,32.0,18.0,-100.00,WSW,258,3.0,11.0,55,-99.99,,,-99.99,,2013-01-02 20:02:00,
2013-01-02 12:12:00,32.0,18.0,-100.00,WSW,258,3.0,11.0,55,-99.99,,,-99.99,,2013-01-02 20:12:00,
2013-01-02 12:22:00,32.0,18.0,-100.00,WSW,258,3.0,11.0,55,-99.99,,,-99.99,,2013-01-02 20:22:00,
2013-01-02 12:42:00,32.0,16.0,-100.00,SW,220,1.0,5.0,50,-99.99,,,-99.99,,2013-01-02 20:42:00,
2013-01-02 12:53:00,32.0,16.0,-100.00,SW,220,1.0,5.0,50,-99.99,,,-99.99,,2013-01-02 20:53:00,
2013-01-02 13:03:00,32.0,16.0,-100.00,SW,220,1.0,5.0,50,-99.99,,,-99.99,,2013-01-02 21:03:00,
2013-01-02 14:22:00,35.0,18.0,-100.00,West,265,1.0,3.0,49,-99.99,,,-99.99,,2013-01-02 22:22:00,
2013-01-02 14:32:00,35.0,18.0,-100.00,West,265,1.0,3.0,49,-99.99,,,-99.99,,2013-01-02 22:32:00,
2013-01-02 14:42:00,35.0,18.0,-100.00,West,265,1.0,3.0,49,-99.99,,,-99.99,,2013-01-02 22:42:00,
2013-01-02 15:02:00,33.0,18.0,-100.00,South,182,1.0,3.0,53,-99.99,,,-99.99,,2013-01-02 23:02:00,
2013-01-02 15:12:00,33.0,18.0,-100.00,South,182,1.0,3.0,53,-99.99,,,-99.99,,2013-01-02 23:12:00,
2013-01-02 15:22:00,33.0,18.0,-100.00,South,182,1.0,3.0,53,-99.99,,,-99.99,,2013-01-02 23:22:00,
2013-01-02 15:43:00,33.0,21.0,-100.00,South,176,2.0,3.0,60,-99.99,,,-99.99,,2013-01-02 23:43:00,
2013-01-02 15:53:00,33.0,21.0,-100.00,South,176,2.0,3.0,60,-99.99,,,-99.99,,2013-01-02 23:53:00,
2013-01-02 16:02:00,33.0,21.0,-100.00,South,176,2.0,3.0,60,-99.99,,,-99.99,,2013-01-03 00:02:00,
2013-01-02 20:22:00,30.0,13.0,-100.00,SSE,168,2.0,4.0,48,-99.99,,,-99.99,,2013-01-03 04:22:00,
2013-01-02 20:32:00,30.0,13.0,-100.00,SSE,168,2.0,4.0,48,-99.99,,,-99.99,,2013-01-03 04:32:00,
2013-01-02 20:42:00,29.0,13.0,-100.00,South,171,2.0,4.0,50,-99.99,,,-99.99,,2013-01-03 04:42:00,
2013-01-02 20:52:00,29.0,13.0,-100.00,South,171,2.0,4.0,50,-99.99,,,-99.99,,2013-01-03 04:52:00,
2013-01-02 23:22:00,26.0,18.0,-100.00,SSE,158,1.0,2.0,71,-99.99,,,-99.99,,2013-01-03 07:22:00,
2013-01-02 23:32:00,26.0,18.0,-100.00,SSE,158,1.0,2.0,71,-99.99,,,-99.99,,2013-01-03 07:32:00,